Time,TemperatureF,DewpointF,PressureIn,WindDirection,WindDirectionDegrees,WindSpeedMPH,WindSpeedGustMPH,Humidity,HourlyPrecipIn,Conditions,Clouds,dailyrainin,SoftwareType,DateUTC
2013-04-02 00:03:00,40.5,33.9,29.99,SSW,210,0.0,0.0,77,0.00,,---,0.00,VWS V14.00,2013-04-02 07:03:00,
2013-04-02 00:08:00,40.8,34.2,29.99,SSW,210,0.0,5.0,77,0.00,,---,0.00,VWS V14.00,2013-04-02 07:08:00,
2013-04-02 00:13:00,40.9,33.9,29.99,SSW,210,1.0,2.0,76,0.00,,---,0.00,VWS V14.00,2013-04-02 07:13:00,
2013-04-02 00:18:00,41.5,34.5,30.00,South,188,2.0,5.0,76,0.00,,---,0.00,VWS V14.00,2013-04-02 07:18:00,
2013-04-02 00:24:00,42.1,34.4,30.00,SSW,193,2.0,5.0,74,0.00,,---,0.00,VWS V14.00,2013-04-02 07:24:00,
2013-04-02 00:29:00,42.1,34.4,30.00,SSW,193,1.0,5.0,74,0.00,,---,0.00,VWS V14.00,2013-04-02 07:29:00,
2013-04-02 00:34:00,41.9,34.2,30.00,SSW,193,0.0,1.0,74,0.00,,---,0.00,VWS V14.00,2013-04-02 07:34:00,
2013-04-02 00:39:00,41.9,34.6,30.00,SSW,193,2.0,5.0,75,0.00,,---,0.00,VWS V14.00,2013-04-02 07:39:00,
2013-04-02 00:44:00,41.8,34.5,30.00,SSW,193,0.0,0.0,75,0.00,,---,0.00,VWS V14.00,2013-04-02 07:44:00,
2013-04-02 00:49:00,41.3,34.0,30.01,SSW,193,0.0,0.0,75,0.00,,---,0.00,VWS V14.00,2013-04-02 07:49:00,
2013-04-02 00:55:00,41.1,33.8,30.01,SSW,193,0.0,0.0,75,0.00,,---,0.00,VWS V14.00,2013-04-02 07:55:00,
2013-04-02 01:00:00,40.6,33.6,30.01,SSW,193,0.0,0.0,76,0.00,,---,0.00,VWS V14.00,2013-04-02 08:00:00,
2013-04-02 01:05:00,40.3,33.3,30.01,SSW,193,0.0,0.0,76,0.00,,---,0.00,VWS V14.00,2013-04-02 08:05:00,
2013-04-02 01:10:00,40.1,33.5,30.01,SSW,193,0.0,0.0,77,0.00,,---,0.00,VWS V14.00,2013-04-02 08:10:00,
2013-04-02 01:15:00,39.6,33.0,30.01,SSW,193,0.0,0.0,77,0.00,,---,0.00,VWS V14.00,2013-04-02 08:15:00,
2013-04-02 01:21:00,39.5,33.2,30.01,SSW,193,0.0,0.0,78,0.00,,---,0.00,VWS V14.00,2013-04-02 08:21:00,
2013-04-02 01:26:00,39.3,33.0,30.01,SSW,193,0.0,0.0,78,0.00,,---,0.00,VWS V14.00,2013-04-02 08:26:00,
2013-04-02 01:31:00,38.9,32.6,30.01,SSW,193,0.0,0.0,78,0.00,,---,0.00,VWS V14.00,2013-04-02 08:31:00,
2013-04-02 01:36:00,38.8,32.9,30.01,SSW,193,0.0,0.0,79,0.00,,---,0.00,VWS V14.00,2013-04-02 08:36:00,
2013-04-02 01:41:00,38.6,33.0,30.01,SSW,193,0.0,0.0,80,0.00,,---,0.00,VWS V14.00,2013-04-02 08:41:00,
2013-04-02 01:47:00,38.6,33.0,30.01,SSW,193,0.0,0.0,80,0.00,,---,0.00,VWS V14.00,2013-04-02 08:47:00,
2013-04-02 01:52:00,38.3,32.7,30.01,SSW,193,0.0,0.0,80,0.00,,---,0.00,VWS V14.00,2013-04-02 08:52:00,
2013-04-02 01:57:00,38.2,32.6,30.01,SSW,193,0.0,0.0,80,0.00,,---,0.00,VWS V14.00,2013-04-02 08:57:00,
2013-04-02 02:02:00,37.9,32.3,30.02,SSW,193,0.0,0.0,80,0.00,,---,0.00,VWS V14.00,2013-04-02 09:02:00,
2013-04-02 02:07:00,37.9,32.6,30.02,SSW,193,0.0,0.0,81,0.00,,---,0.00,VWS V14.00,2013-04-02 09:07:00,
2013-04-02 02:12:00,37.6,32.3,30.02,SSW,193,0.0,0.0,81,0.00,,---,0.00,VWS V14.00,2013-04-02 09:12:00,
2013-04-02 02:17:00,37.5,31.9,30.02,SSW,193,0.0,0.0,80,0.00,,---,0.00,VWS V14.00,2013-04-02 09:17:00,
2013-04-02 02:22:00,37.5,32.2,30.02,SSW,193,0.0,0.0,81,0.00,,---,0.00,VWS V14.00,2013-04-02 09:22:00,
2013-04-02 02:28:00,37.3,32.0,30.02,SSW,193,0.0,0.0,81,0.00,,---,0.00,VWS V14.00,2013-04-02 09:28:00,
2013-04-02 02:33:00,37.3,32.3,30.02,SSW,193,0.0,0.0,82,0.00,,---,0.00,VWS V14.00,2013-04-02 09:33:00,
2013-04-02 02:38:00,37.0,31.7,30.02,SSW,193,0.0,0.0,81,0.00,,---,0.00,VWS V14.00,2013-04-02 09:38:00,
2013-04-02 02:43:00,36.9,31.6,30.02,SSW,193,0.0,0.0,81,0.00,,---,0.00,VWS V14.00,2013-04-02 09:43:00,
2013-04-02 02:48:00,36.8,31.5,30.02,SSW,193,0.0,0.0,81,0.00,,---,0.00,VWS V14.00,2013-04-02 09:48:00,
2013-04-02 02:53:00,36.5,31.2,30.02,SSW,193,0.0,0.0,81,0.00,,---,0.00,VWS V14.00,2013-04-02 09:53:00,
2013-04-02 02:59:00,36.3,31.0,30.02,SSW,193,0.0,0.0,81,0.00,,---,0.00,VWS V14.00,2013-04-02 09:59:00,
2013-04-02 03:04:00,36.0,30.8,30.03,SSW,193,0.0,0.0,81,0.00,,---,0.00,VWS V14.00,2013-04-02 10:04:00,
2013-04-02 03:09:00,35.9,30.6,30.03,SSW,193,0.0,0.0,81,0.00,,---,0.00,VWS V14.00,2013-04-02 10:09:00,
2013-04-02 03:14:00,35.9,31.0,30.03,SSW,193,0.0,0.0,82,0.00,,---,0.00,VWS V14.00,2013-04-02 10:14:00,
2013-04-02 03:19:00,35.5,30.3,30.03,SSW,193,0.0,0.0,81,0.00,,---,0.00,VWS V14.00,2013-04-02 10:19:00,
2013-04-02 03:24:00,35.2,30.3,30.03,SSW,193,0.0,0.0,82,0.00,,---,0.00,VWS V14.00,2013-04-02 10:24:00,
2013-04-02 03:30:00,35.0,30.1,30.03,SSW,193,0.0,0.0,82,0.00,,---,0.00,VWS V14.00,2013-04-02 10:30:00,
2013-04-02 03:35:00,34.7,29.8,30.03,SSW,193,0.0,0.0,82,0.00,,---,0.00,VWS V14.00,2013-04-02 10:35:00,
2013-04-02 03:40:00,34.6,29.7,30.03,SSW,193,0.0,0.0,82,0.00,,---,0.00,VWS V14.00,2013-04-02 10:40:00,
2013-04-02 03:45:00,34.4,29.5,30.04,SSW,193,0.0,0.0,82,0.00,,---,0.00,VWS V14.00,2013-04-02 10:45:00,
2013-04-02 03:50:00,34.3,29.4,30.04,SSW,193,0.0,0.0,82,0.00,,---,0.00,VWS V14.00,2013-04-02 10:50:00,
2013-04-02 03:55:00,34.3,29.7,30.04,SSW,193,0.0,0.0,83,0.00,,---,0.00,VWS V14.00,2013-04-02 10:55:00,
2013-04-02 04:01:00,34.1,29.8,30.05,SSW,193,0.0,0.0,84,0.00,,---,0.00,VWS V14.00,2013-04-02 11:01:00,
2013-04-02 04:06:00,34.1,29.8,30.05,SSW,193,0.0,0.0,84,0.00,,---,0.00,VWS V14.00,2013-04-02 11:06:00,
2013-04-02 04:11:00,34.0,29.4,30.05,SSW,193,0.0,0.0,83,0.00,,---,0.00,VWS V14.00,2013-04-02 11:11:00,
2013-04-02 04:17:00,33.7,29.1,30.05,SSW,193,0.0,0.0,83,0.00,,---,0.00,VWS V14.00,2013-04-02 11:17:00,
2013-04-02 04:22:00,33.5,28.9,30.05,SSW,193,0.0,0.0,83,0.00,,---,0.00,VWS V14.00,2013-04-02 11:22:00,
2013-04-02 04:27:00,33.2,28.6,30.05,SSW,193,0.0,0.0,83,0.00,,---,0.00,VWS V14.00,2013-04-02 11:27:00,
2013-04-02 04:32:00,33.1,28.5,30.05,SSW,193,0.0,0.0,83,0.00,,---,0.00,VWS V14.00,2013-04-02 11:32:00,
2013-04-02 04:37:00,32.5,27.9,30.05,SSW,193,0.0,0.0,83,0.00,,---,0.00,VWS V14.00,2013-04-02 11:37:00,
2013-04-02 04:42:00,32.1,27.5,30.05,SSW,193,0.0,0.0,83,0.00,,---,0.00,VWS V14.00,2013-04-02 11:42:00,
2013-04-02 04:48:00,31.8,26.4,30.06,SSW,193,0.0,0.0,80,0.00,,---,0.00,VWS V14.00,2013-04-02 11:48:00,
2013-04-02 04:53:00,31.5,26.0,30.06,SSW,193,0.0,0.0,80,0.00,,---,0.00,VWS V14.00,2013-04-02 11:53:00,
2013-04-02 04:58:00,31.8,26.6,30.06,SSW,193,0.0,0.0,81,0.00,,---,0.00,VWS V14.00,2013-04-02 11:58:00,
2013-04-02 05:03:00,32.1,27.2,30.06,SSW,193,0.0,0.0,82,0.00,,---,0.00,VWS V14.00,2013-04-02 12:03:00,
2013-04-02 05:08:00,31.9,27.0,30.06,SSW,193,0.0,1.0,82,0.00,,---,0.00,VWS V14.00,2013-04-02 12:08:00,
2013-04-02 05:13:00,31.8,26.9,30.06,SSW,193,0.0,0.0,82,0.00,,---,0.00,VWS V14.00,2013-04-02 12:13:00,
2013-04-02 05:18:00,31.6,26.8,30.07,SSW,193,0.0,0.0,82,0.00,,---,0.00,VWS V14.00,2013-04-02 12:18:00,
2013-04-02 05:24:00,31.5,26.6,30.07,SSW,193,0.0,0.0,82,0.00,,---,0.00,VWS V14.00,2013-04-02 12:24:00,
2013-04-02 05:29:00,31.0,25.9,30.07,SSW,193,0.0,0.0,81,0.00,,---,0.00,VWS V14.00,2013-04-02 12:29:00,
2013-04-02 05:34:00,30.9,25.8,30.08,SSW,193,0.0,0.0,81,0.00,,---,0.00,VWS V14.00,2013-04-02 12:34:00,
2013-04-02 05:39:00,31.0,27.0,30.08,SSW,193,0.0,0.0,85,0.00,,---,0.00,VWS V14.00,2013-04-02 12:39:00,
2013-04-02 05:44:00,30.4,26.4,30.08,SSW,193,0.0,0.0,85,0.00,,---,0.00,VWS V14.00,2013-04-02 12:44:00,
2013-04-02 05:49:00,30.1,26.1,30.08,SSW,193,0.0,0.0,85,0.00,,---,0.00,VWS V14.00,2013-04-02 12:49:00,
2013-04-02 05:55:00,30.1,26.1,30.08,SSW,193,0.0,0.0,85,0.00,,---,0.00,VWS V14.00,2013-04-02 12:55:00,
2013-04-02 06:00:00,30.0,26.0,30.08,SSW,193,0.0,0.0,85,0.00,,---,0.00,VWS V14.00,2013-04-02 13:00:00,
2013-04-02 06:05:00,29.8,25.9,30.08,SSW,193,0.0,2.0,85,0.00,,---,0.00,VWS V14.00,2013-04-02 13:05:00,
2013-04-02 06:10:00,29.7,25.8,30.08,SSW,193,0.0,2.0,85,0.00,,---,0.00,VWS V14.00,2013-04-02 13:10:00,
2013-04-02 06:15:00,30.0,26.0,30.09,SSW,193,0.0,0.0,85,0.00,,---,0.00,VWS V14.00,2013-04-02 13:15:00,
2013-04-02 06:20:00,30.0,26.0,30.09,SSW,193,0.0,0.0,85,0.00,,---,0.00,VWS V14.00,2013-04-02 13:20:00,
2013-04-02 06:26:00,30.0,26.0,30.09,SSW,193,0.0,0.0,85,0.00,,---,0.00,VWS V14.00,2013-04-02 13:26:00,
2013-04-02 06:32:00,29.8,25.9,30.10,SSW,193,0.0,0.0,85,0.00,,---,0.00,VWS V14.00,2013-04-02 13:32:00,
2013-04-02 06:37:00,29.8,25.9,30.10,SSW,193,0.0,0.0,85,0.00,,---,0.00,VWS V14.00,2013-04-02 13:37:00,
2013-04-02 06:42:00,29.7,25.8,30.10,SSW,193,0.0,0.0,85,0.00,,---,0.00,VWS V14.00,2013-04-02 13:42:00,
2013-04-02 06:47:00,29.4,25.5,30.10,SSW,193,0.0,0.0,85,0.00,,---,0.00,VWS V14.00,2013-04-02 13:47:00,
2013-04-02 06:53:00,29.4,25.5,30.10,SSW,193,0.0,0.0,85,0.00,,---,0.00,VWS V14.00,2013-04-02 13:53:00,
2013-04-02 06:58:00,29.3,25.4,30.10,SSW,193,0.0,1.0,85,0.00,,---,0.00,VWS V14.00,2013-04-02 13:58:00,
2013-04-02 07:03:00,29.1,25.2,30.10,SSW,193,1.0,1.0,85,0.00,,---,0.00,VWS V14.00,2013-04-02 14:03:00,
2013-04-02 07:08:00,29.4,25.5,30.10,SSW,193,0.0,2.0,85,0.00,,---,0.00,VWS V14.00,2013-04-02 14:08:00,
2013-04-02 07:13:00,29.7,25.8,30.10,SSW,193,0.0,0.0,85,0.00,,---,0.00,VWS V14.00,2013-04-02 14:13:00,
2013-04-02 07:18:00,30.0,26.3,30.12,SSW,193,0.0,0.0,86,0.00,,---,0.00,VWS V14.00,2013-04-02 14:18:00,
2013-04-02 07:24:00,30.0,26.3,30.12,SSW,193,0.0,0.0,86,0.00,,---,0.00,VWS V14.00,2013-04-02 14:24:00,
2013-04-02 07:29:00,30.0,26.3,30.12,SSW,193,0.0,0.0,86,0.00,,---,0.00,VWS V14.00,2013-04-02 14:29:00,
2013-04-02 07:34:00,30.1,26.4,30.12,SSW,193,1.0,2.0,86,0.00,,---,0.00,VWS V14.00,2013-04-02 14:34:00,
2013-04-02 07:39:00,30.3,26.6,30.12,SSW,193,0.0,2.0,86,0.00,,---,0.00,VWS V14.00,2013-04-02 14:39:00,
2013-04-02 07:44:00,30.9,27.2,30.12,SSW,193,0.0,0.0,86,0.00,,---,0.00,VWS V14.00,2013-04-02 14:44:00,
2013-04-02 07:49:00,31.8,28.1,30.11,SSW,193,0.0,0.0,86,0.00,,---,0.00,VWS V14.00,2013-04-02 14:49:00,
2013-04-02 07:55:00,32.4,28.7,30.11,SSW,193,0.0,0.0,86,0.00,,---,0.00,VWS V14.00,2013-04-02 14:55:00,
2013-04-02 08:00:00,33.2,29.5,30.10,SSW,193,0.0,0.0,86,0.00,,---,0.00,VWS V14.00,2013-04-02 15:00:00,
2013-04-02 08:05:00,34.3,30.8,30.10,SSW,193,0.0,0.0,87,0.00,,---,0.00,VWS V14.00,2013-04-02 15:05:00,
2013-04-02 08:10:00,34.7,31.2,30.10,SSW,193,0.0,0.0,87,0.00,,---,0.00,VWS V14.00,2013-04-02 15:10:00,
2013-04-02 08:15:00,36.0,32.5,30.11,SSW,193,0.0,2.0,87,0.00,,---,0.00,VWS V14.00,2013-04-02 15:15:00,
2013-04-02 08:20:00,36.6,33.1,30.11,SSW,193,0.0,2.0,87,0.00,,---,0.00,VWS V14.00,2013-04-02 15:20:00,
2013-04-02 08:26:00,37.3,33.8,30.11,SSW,193,0.0,1.0,87,0.00,,---,0.00,VWS V14.00,2013-04-02 15:26:00,
2013-04-02 08:31:00,37.9,34.4,30.10,SSW,193,0.0,2.0,87,0.00,,---,0.00,VWS V14.00,2013-04-02 15:31:00,
2013-04-02 08:36:00,38.5,34.7,30.10,SSW,193,0.0,1.0,86,0.00,,---,0.00,VWS V14.00,2013-04-02 15:36:00,
2013-04-02 08:42:00,39.5,34.8,30.10,SSW,192,0.0,1.0,83,0.00,,---,0.00,VWS V14.00,2013-04-02 15:42:00,
2013-04-02 08:47:00,41.1,35.4,30.09,SSW,192,0.0,3.0,80,0.00,,---,0.00,VWS V14.00,2013-04-02 15:47:00,
2013-04-02 08:53:00,42.5,34.8,30.09,South,189,1.0,5.0,74,0.00,,---,0.00,VWS V14.00,2013-04-02 15:53:00,
2013-04-02 08:58:00,44.2,34.3,30.09,South,188,6.0,10.0,68,0.00,,---,0.00,VWS V14.00,2013-04-02 15:58:00,
2013-04-02 09:03:00,44.9,34.2,30.07,SSW,198,4.0,12.0,66,0.00,,---,0.00,VWS V14.00,2013-04-02 16:03:00,
2013-04-02 09:08:00,45.7,35.4,30.07,South,186,5.0,12.0,67,0.00,,---,0.00,VWS V14.00,2013-04-02 16:08:00,
2013-04-02 09:13:00,46.0,34.9,30.07,South,184,7.0,12.0,65,0.00,,---,0.00,VWS V14.00,2013-04-02 16:13:00,
2013-04-02 09:19:00,46.4,34.9,30.08,SSW,210,7.0,14.0,64,0.00,,---,0.00,VWS V14.00,2013-04-02 16:19:00,
2013-04-02 09:24:00,46.4,34.5,30.08,SSW,198,1.0,12.0,63,0.00,,---,0.00,VWS V14.00,2013-04-02 16:24:00,
2013-04-02 09:29:00,47.0,35.1,30.08,SSW,208,2.0,12.0,63,0.00,,---,0.00,VWS V14.00,2013-04-02 16:29:00,
2013-04-02 09:34:00,47.3,34.5,30.08,SSW,213,2.0,10.0,61,0.00,,---,0.00,VWS V14.00,2013-04-02 16:34:00,
2013-04-02 09:39:00,47.1,33.9,30.08,SSW,192,8.0,15.0,60,0.00,,---,0.00,VWS V14.00,2013-04-02 16:39:00,
2013-04-02 09:45:00,47.1,34.4,30.08,SSE,162,3.0,11.0,61,0.00,,---,0.00,VWS V14.00,2013-04-02 16:45:00,
2013-04-02 09:50:00,47.3,34.5,30.08,South,185,5.0,11.0,61,0.00,,---,0.00,VWS V14.00,2013-04-02 16:50:00,
2013-04-02 09:55:00,48.2,34.6,30.08,SW,215,5.0,7.0,59,0.00,,---,0.00,VWS V14.00,2013-04-02 16:55:00,
2013-04-02 10:00:00,48.3,34.7,30.07,South,189,7.0,11.0,59,0.00,,---,0.00,VWS V14.00,2013-04-02 17:00:00,
2013-04-02 10:06:00,48.3,34.7,30.07,South,191,7.0,14.0,59,0.00,,---,0.00,VWS V14.00,2013-04-02 17:06:00,
2013-04-02 10:11:00,48.3,34.7,30.07,SSW,200,6.0,14.0,59,0.00,,---,0.00,VWS V14.00,2013-04-02 17:11:00,
2013-04-02 10:16:00,48.3,34.7,30.09,South,189,5.0,16.0,59,0.00,,---,0.00,VWS V14.00,2013-04-02 17:16:00,
2013-04-02 10:22:00,48.5,34.0,30.09,SW,215,8.0,12.0,57,0.00,,---,0.00,VWS V14.00,2013-04-02 17:22:00,
2013-04-02 10:27:00,48.9,33.9,30.09,SSW,206,7.0,12.0,56,0.00,,---,0.00,VWS V14.00,2013-04-02 17:27:00,
2013-04-02 10:32:00,49.9,34.8,30.08,SSW,192,7.0,8.0,56,0.00,,---,0.00,VWS V14.00,2013-04-02 17:32:00,
2013-04-02 10:37:00,49.9,34.4,30.08,South,184,7.0,13.0,55,0.00,,---,0.00,VWS V14.00,2013-04-02 17:37:00,
2013-04-02 10:42:00,50.1,35.5,30.08,SSW,196,6.0,8.0,57,0.00,,---,0.00,VWS V14.00,2013-04-02 17:42:00,
2013-04-02 10:48:00,50.4,34.9,30.08,SSW,193,7.0,10.0,55,0.00,,---,0.00,VWS V14.00,2013-04-02 17:48:00,
2013-04-02 10:53:00,50.8,35.2,30.08,SSW,213,7.0,8.0,55,0.00,,---,0.00,VWS V14.00,2013-04-02 17:53:00,
2013-04-02 10:58:00,50.8,35.2,30.08,SSW,193,7.0,11.0,55,0.00,,---,0.00,VWS V14.00,2013-04-02 17:58:00,
2013-04-02 11:03:00,51.6,35.5,30.07,South,189,1.0,7.0,54,0.00,,---,0.00,VWS V14.00,2013-04-02 18:03:00,
2013-04-02 11:09:00,52.0,34.5,30.07,SSW,200,8.0,11.0,51,0.00,,---,0.00,VWS V14.00,2013-04-02 18:09:00,
2013-04-02 11:14:00,52.3,35.2,30.07,SSW,200,4.0,11.0,52,0.00,,---,0.00,VWS V14.00,2013-04-02 18:14:00,
2013-04-02 11:19:00,52.5,34.4,30.06,South,185,5.0,11.0,50,0.00,,---,0.00,VWS V14.00,2013-04-02 18:19:00,
2013-04-02 11:24:00,52.9,35.8,30.06,SSW,195,8.0,10.0,52,0.00,,---,0.00,VWS V14.00,2013-04-02 18:24:00,
2013-04-02 11:30:00,52.9,34.8,30.06,South,189,5.0,12.0,50,0.00,,---,0.00,VWS V14.00,2013-04-02 18:30:00,
2013-04-02 11:35:00,52.9,35.8,30.06,SSW,196,4.0,7.0,52,0.00,,---,0.00,VWS V14.00,2013-04-02 18:35:00,
2013-04-02 11:40:00,53.1,35.5,30.06,South,171,1.0,10.0,51,0.00,,---,0.00,VWS V14.00,2013-04-02 18:40:00,
2013-04-02 11:45:00,53.5,33.8,30.05,South,184,2.0,7.0,47,0.00,,---,0.00,VWS V14.00,2013-04-02 18:45:00,
2013-04-02 11:50:00,53.3,34.7,30.05,SSW,202,2.0,13.0,49,0.00,,---,0.00,VWS V14.00,2013-04-02 18:50:00,
2013-04-02 11:55:00,54.2,35.5,30.05,South,181,9.0,12.0,49,0.00,,---,0.00,VWS V14.00,2013-04-02 18:55:00,
2013-04-02 12:00:00,54.7,35.4,30.04,SW,222,0.0,12.0,48,0.00,,---,0.00,VWS V14.00,2013-04-02 19:00:00,
2013-04-02 12:05:00,54.7,36.4,30.04,SSW,193,3.0,11.0,50,0.00,,---,0.00,VWS V14.00,2013-04-02 19:05:00,
2013-04-02 12:10:00,55.0,36.7,30.04,South,186,0.0,11.0,50,0.00,,---,0.00,VWS V14.00,2013-04-02 19:10:00,
2013-04-02 12:16:00,54.8,36.5,30.03,SSW,206,7.0,11.0,50,0.00,,---,0.00,VWS V14.00,2013-04-02 19:16:00,
2013-04-02 12:21:00,55.4,35.5,30.03,South,184,5.0,11.0,47,0.00,,---,0.00,VWS V14.00,2013-04-02 19:21:00,
2013-04-02 12:26:00,56.2,36.8,30.03,ENE,69,2.0,10.0,48,0.00,,---,0.00,VWS V14.00,2013-04-02 19:26:00,
2013-04-02 12:31:00,55.7,35.8,30.03,SW,223,2.0,4.0,47,0.00,,---,0.00,VWS V14.00,2013-04-02 19:31:00,
2013-04-02 12:36:00,56.5,36.0,30.03,WSW,253,0.0,18.0,46,0.00,,---,0.00,VWS V14.00,2013-04-02 19:36:00,
2013-04-02 12:42:00,56.5,35.4,30.03,SSW,200,7.0,10.0,45,0.00,,---,0.00,VWS V14.00,2013-04-02 19:42:00,
2013-04-02 12:48:00,56.7,35.0,30.01,South,179,7.0,12.0,44,0.00,,---,0.00,VWS V14.00,2013-04-02 19:48:00,
2013-04-02 12:53:00,56.5,33.7,30.01,SSW,195,2.0,9.0,42,0.00,,---,0.00,VWS V14.00,2013-04-02 19:53:00,
2013-04-02 12:58:00,56.7,34.5,30.01,South,188,6.0,12.0,43,0.00,,---,0.00,VWS V14.00,2013-04-02 19:58:00,
2013-04-02 13:03:00,57.5,34.0,30.01,SSW,198,5.0,7.0,41,0.00,,---,0.00,VWS V14.00,2013-04-02 20:03:00,
2013-04-02 13:08:00,58.3,34.7,30.01,South,176,2.0,7.0,41,0.00,,---,0.00,VWS V14.00,2013-04-02 20:08:00,
2013-04-02 13:13:00,58.1,33.9,30.01,South,184,2.0,10.0,40,0.00,,---,0.00,VWS V14.00,2013-04-02 20:13:00,
2013-04-02 13:19:00,59.2,34.9,30.02,SSW,200,8.0,10.0,40,0.00,,---,0.00,VWS V14.00,2013-04-02 20:19:00,
2013-04-02 13:24:00,58.1,33.3,30.02,SSW,205,7.0,11.0,39,0.00,,---,0.00,VWS V14.00,2013-04-02 20:24:00,
2013-04-02 13:29:00,58.4,33.6,30.02,SSE,155,3.0,11.0,39,0.00,,---,0.00,VWS V14.00,2013-04-02 20:29:00,
2013-04-02 13:34:00,58.4,35.4,30.01,South,182,7.0,11.0,42,0.00,,---,0.00,VWS V14.00,2013-04-02 20:34:00,
2013-04-02 13:39:00,59.3,36.2,30.01,SSW,210,7.0,12.0,42,0.00,,---,0.00,VWS V14.00,2013-04-02 20:39:00,
2013-04-02 13:45:00,59.2,36.1,30.01,South,184,3.0,10.0,42,0.00,,---,0.00,VWS V14.00,2013-04-02 20:45:00,
2013-04-02 13:50:00,60.4,35.3,30.01,North,356,2.0,10.0,39,0.00,,---,0.00,VWS V14.00,2013-04-02 20:50:00,
2013-04-02 13:55:00,60.2,35.2,30.01,South,188,7.0,11.0,39,0.00,,---,0.00,VWS V14.00,2013-04-02 20:55:00,
2013-04-02 14:00:00,59.3,35.6,30.01,SSE,148,1.0,12.0,41,0.00,,---,0.00,VWS V14.00,2013-04-02 21:00:00,
2013-04-02 14:05:00,59.6,37.7,29.99,South,186,8.0,12.0,44,0.00,,---,0.00,VWS V14.00,2013-04-02 21:05:00,
2013-04-02 14:10:00,59.9,36.8,29.99,South,178,5.0,12.0,42,0.00,,---,0.00,VWS V14.00,2013-04-02 21:10:00,
2013-04-02 14:15:00,60.4,36.0,30.00,South,191,5.0,12.0,40,0.00,,---,0.00,VWS V14.00,2013-04-02 21:15:00,
2013-04-02 14:20:00,60.9,37.7,30.00,South,184,7.0,12.0,42,0.00,,---,0.00,VWS V14.00,2013-04-02 21:20:00,
2013-04-02 14:26:00,60.2,36.4,30.00,SSW,209,7.0,14.0,41,0.00,,---,0.00,VWS V14.00,2013-04-02 21:26:00,
2013-04-02 14:32:00,60.9,36.4,30.00,SSW,192,5.0,5.0,40,0.00,,---,0.00,VWS V14.00,2013-04-02 21:32:00,
2013-04-02 14:37:00,61.0,36.5,30.00,South,182,2.0,8.0,40,0.00,,---,0.00,VWS V14.00,2013-04-02 21:37:00,
2013-04-02 14:42:00,61.6,37.1,30.00,WSW,237,2.0,3.0,40,0.00,,---,0.00,VWS V14.00,2013-04-02 21:42:00,
2013-04-02 14:48:00,61.6,35.1,30.00,South,188,7.0,16.0,37,0.00,,---,0.00,VWS V14.00,2013-04-02 21:48:00,
2013-04-02 14:53:00,62.0,33.3,30.00,South,188,0.0,12.0,34,0.00,,---,0.00,VWS V14.00,2013-04-02 21:53:00,
2013-04-02 14:58:00,61.3,32.7,30.00,SSW,198,10.0,14.0,34,0.00,,---,0.00,VWS V14.00,2013-04-02 21:58:00,
2013-04-02 15:03:00,61.3,34.8,29.99,South,188,13.0,13.0,37,0.00,,---,0.00,VWS V14.00,2013-04-02 22:03:00,
2013-04-02 15:09:00,61.3,35.5,29.99,South,178,4.0,14.0,38,0.00,,---,0.00,VWS V14.00,2013-04-02 22:09:00,
2013-04-02 15:14:00,62.3,35.7,29.99,SSW,200,5.0,10.0,37,0.00,,---,0.00,VWS V14.00,2013-04-02 22:14:00,
2013-04-02 15:19:00,61.8,33.9,30.00,South,185,12.0,16.0,35,0.00,,---,0.00,VWS V14.00,2013-04-02 22:19:00,
2013-04-02 15:24:00,61.0,34.6,30.00,SSW,202,8.0,16.0,37,0.00,,---,0.00,VWS V14.00,2013-04-02 22:24:00,
2013-04-02 15:30:00,61.3,34.1,30.00,South,175,6.0,16.0,36,0.00,,---,0.00,VWS V14.00,2013-04-02 22:30:00,
2013-04-02 15:35:00,61.3,35.5,30.00,South,174,4.0,17.0,38,0.00,,---,0.00,VWS V14.00,2013-04-02 22:35:00,
2013-04-02 15:40:00,62.0,33.3,30.00,NNW,340,5.0,17.0,34,0.00,,---,0.00,VWS V14.00,2013-04-02 22:40:00,
2013-04-02 15:45:00,61.6,34.4,29.99,South,172,6.0,13.0,36,0.00,,---,0.00,VWS V14.00,2013-04-02 22:45:00,
2013-04-02 15:50:00,61.6,32.2,29.99,SW,219,3.0,13.0,33,0.00,,---,0.00,VWS V14.00,2013-04-02 22:50:00,
2013-04-02 15:56:00,61.8,32.4,29.99,NW,306,0.0,7.0,33,0.00,,---,0.00,VWS V14.00,2013-04-02 22:56:00,
2013-04-02 16:01:00,61.0,33.9,29.99,SSE,165,3.0,3.0,36,0.00,,---,0.00,VWS V14.00,2013-04-02 23:01:00,
2013-04-02 16:06:00,60.4,34.7,29.99,SSE,152,2.0,10.0,38,0.00,,---,0.00,VWS V14.00,2013-04-02 23:06:00,
2013-04-02 16:11:00,59.8,34.8,29.99,SSW,192,2.0,3.0,39,0.00,,---,0.00,VWS V14.00,2013-04-02 23:11:00,
2013-04-02 16:17:00,60.4,34.7,30.00,South,179,2.0,10.0,38,0.00,,---,0.00,VWS V14.00,2013-04-02 23:17:00,
2013-04-02 16:22:00,61.3,34.1,30.00,South,189,3.0,11.0,36,0.00,,---,0.00,VWS V14.00,2013-04-02 23:22:00,
2013-04-02 16:27:00,62.0,34.1,30.00,WNW,291,6.0,11.0,35,0.00,,---,0.00,VWS V14.00,2013-04-02 23:27:00,
2013-04-02 16:32:00,62.3,34.3,29.99,SSW,195,2.0,8.0,35,0.00,,---,0.00,VWS V14.00,2013-04-02 23:32:00,
2013-04-02 16:38:00,60.7,35.6,29.99,South,184,4.0,14.0,39,0.00,,---,0.00,VWS V14.00,2013-04-02 23:38:00,
2013-04-02 16:43:00,60.4,34.7,29.99,SSW,200,8.0,8.0,38,0.00,,---,0.00,VWS V14.00,2013-04-02 23:43:00,
2013-04-02 16:48:00,60.5,34.8,30.00,South,181,6.0,14.0,38,0.00,,---,0.00,VWS V14.00,2013-04-02 23:48:00,
2013-04-02 16:53:00,59.9,34.2,30.00,South,189,10.0,10.0,38,0.00,,---,0.00,VWS V14.00,2013-04-02 23:53:00,
2013-04-02 16:58:00,59.8,36.1,30.00,SSW,200,3.0,10.0,41,0.00,,---,0.00,VWS V14.00,2013-04-02 23:58:00,
2013-04-02 17:04:00,59.2,34.9,30.00,SSW,202,7.0,13.0,40,0.00,,---,0.00,VWS V14.00,2013-04-03 00:04:00,
2013-04-02 17:09:00,59.2,35.5,30.00,SSW,208,7.0,13.0,41,0.00,,---,0.00,VWS V14.00,2013-04-03 00:09:00,
2013-04-02 17:14:00,59.2,36.1,30.00,SSW,205,7.0,8.0,42,0.00,,---,0.00,VWS V14.00,2013-04-03 00:14:00,
2013-04-02 17:19:00,58.7,35.7,30.02,South,176,3.0,11.0,42,0.00,,---,0.00,VWS V14.00,2013-04-03 00:19:00,
2013-04-02 17:24:00,58.6,36.2,30.02,South,185,2.0,8.0,43,0.00,,---,0.00,VWS V14.00,2013-04-03 00:24:00,
2013-04-02 17:29:00,59.2,35.5,30.02,South,189,5.0,11.0,41,0.00,,---,0.00,VWS V14.00,2013-04-03 00:29:00,
2013-04-02 17:34:00,59.2,36.1,30.02,South,182,6.0,12.0,42,0.00,,---,0.00,VWS V14.00,2013-04-03 00:34:00,
2013-04-02 17:40:00,59.6,35.3,30.02,SSW,195,5.0,12.0,40,0.00,,---,0.00,VWS V14.00,2013-04-03 00:40:00,
2013-04-02 17:45:00,58.7,36.3,30.02,SSW,196,8.0,14.0,43,0.00,,---,0.00,VWS V14.00,2013-04-03 00:45:00,
2013-04-02 17:50:00,58.0,36.2,30.02,South,189,2.0,14.0,44,0.00,,---,0.00,VWS V14.00,2013-04-03 00:50:00,
2013-04-02 17:55:00,58.0,35.7,30.02,South,188,10.0,11.0,43,0.00,,---,0.00,VWS V14.00,2013-04-03 00:55:00,
2013-04-02 18:00:00,57.5,35.8,30.01,South,186,6.0,11.0,44,0.00,,---,0.00,VWS V14.00,2013-04-03 01:00:00,
2013-04-02 18:05:00,57.3,35.6,30.01,South,184,5.0,8.0,44,0.00,,---,0.00,VWS V14.00,2013-04-03 01:05:00,
2013-04-02 18:10:00,57.3,35.6,30.01,SSW,193,4.0,8.0,44,0.00,,---,0.00,VWS V14.00,2013-04-03 01:10:00,
2013-04-02 18:16:00,56.7,35.6,30.02,South,188,5.0,10.0,45,0.00,,---,0.00,VWS V14.00,2013-04-03 01:16:00,
2013-04-02 18:21:00,56.5,36.0,30.02,SSW,206,6.0,8.0,46,0.00,,---,0.00,VWS V14.00,2013-04-03 01:21:00,
2013-04-02 18:26:00,56.2,35.7,30.02,SSW,196,4.0,8.0,46,0.00,,---,0.00,VWS V14.00,2013-04-03 01:26:00,
2013-04-02 18:31:00,56.2,35.7,30.03,SSW,198,1.0,3.0,46,0.00,,---,0.00,VWS V14.00,2013-04-03 01:31:00,
2013-04-02 18:36:00,55.9,36.0,30.03,South,184,4.0,9.0,47,0.00,,---,0.00,VWS V14.00,2013-04-03 01:36:00,
2013-04-02 18:42:00,55.6,34.6,30.03,SSE,152,2.0,6.0,45,0.00,,---,0.00,VWS V14.00,2013-04-03 01:42:00,
2013-04-02 18:47:00,55.3,34.9,30.04,South,184,7.0,9.0,46,0.00,,---,0.00,VWS V14.00,2013-04-03 01:47:00,
2013-04-02 18:52:00,55.0,35.2,30.04,SSW,192,2.0,5.0,47,0.00,,---,0.00,VWS V14.00,2013-04-03 01:52:00,
2013-04-02 18:58:00,54.7,35.4,30.04,South,186,0.0,6.0,48,0.00,,---,0.00,VWS V14.00,2013-04-03 01:58:00,
2013-04-02 19:03:00,54.4,35.1,30.04,South,182,0.0,5.0,48,0.00,,---,0.00,VWS V14.00,2013-04-03 02:03:00,
2013-04-02 19:08:00,54.1,34.9,30.04,South,175,5.0,5.0,48,0.00,,---,0.00,VWS V14.00,2013-04-03 02:08:00,
2013-04-02 19:13:00,53.8,34.6,30.04,South,188,3.0,9.0,48,0.00,,---,0.00,VWS V14.00,2013-04-03 02:13:00,
2013-04-02 19:18:00,53.3,35.7,30.03,South,185,1.0,9.0,51,0.00,,---,0.00,VWS V14.00,2013-04-03 02:18:00,
2013-04-02 19:24:00,52.6,35.5,30.03,South,185,2.0,2.0,52,0.00,,---,0.00,VWS V14.00,2013-04-03 02:24:00,
2013-04-02 19:29:00,52.2,35.6,30.03,South,188,5.0,6.0,53,0.00,,---,0.00,VWS V14.00,2013-04-03 02:29:00,
2013-04-02 19:34:00,51.7,34.7,30.05,South,188,5.0,7.0,52,0.00,,---,0.00,VWS V14.00,2013-04-03 02:34:00,
2013-04-02 19:40:00,51.4,34.9,30.05,South,189,3.0,7.0,53,0.00,,---,0.00,VWS V14.00,2013-04-03 02:40:00,
2013-04-02 19:45:00,51.0,35.0,30.05,South,189,3.0,5.0,54,0.00,,---,0.00,VWS V14.00,2013-04-03 02:45:00,
2013-04-02 19:50:00,50.5,35.0,30.05,South,189,2.0,5.0,55,0.00,,---,0.00,VWS V14.00,2013-04-03 02:50:00,
2013-04-02 19:55:00,50.2,34.7,30.05,South,189,0.0,3.0,55,0.00,,---,0.00,VWS V14.00,2013-04-03 02:55:00,
2013-04-02 20:00:00,49.5,34.9,30.06,South,189,0.0,3.0,57,0.00,,---,0.00,VWS V14.00,2013-04-03 03:00:00,
2013-04-02 20:05:00,48.8,34.7,30.06,South,189,0.0,1.0,58,0.00,,---,0.00,VWS V14.00,2013-04-03 03:05:00,
2013-04-02 20:10:00,47.6,34.4,30.06,South,189,0.0,3.0,60,0.00,,---,0.00,VWS V14.00,2013-04-03 03:10:00,
2013-04-02 20:15:00,46.7,34.8,30.02,South,189,0.0,2.0,63,0.00,,---,0.00,VWS V14.00,2013-04-03 03:15:00,
2013-04-02 20:21:00,46.2,33.9,30.02,South,189,0.0,2.0,62,0.00,,---,0.00,VWS V14.00,2013-04-03 03:21:00,
2013-04-02 20:26:00,45.5,33.7,30.02,South,189,0.0,2.0,63,0.00,,---,0.00,VWS V14.00,2013-04-03 03:26:00,
2013-04-02 20:31:00,44.9,33.9,30.03,South,189,0.0,1.0,65,0.00,,---,0.00,VWS V14.00,2013-04-03 03:31:00,
2013-04-02 20:36:00,44.2,33.2,30.03,South,189,1.0,3.0,65,0.00,,---,0.00,VWS V14.00,2013-04-03 03:36:00,
2013-04-02 20:42:00,44.6,32.8,30.03,South,189,2.0,5.0,63,0.00,,---,0.00,VWS V14.00,2013-04-03 03:42:00,
2013-04-02 20:47:00,45.2,33.0,30.04,South,189,2.0,5.0,62,0.00,,---,0.00,VWS V14.00,2013-04-03 03:47:00,
2013-04-02 20:52:00,45.1,33.3,30.04,South,189,0.0,0.0,63,0.00,,---,0.00,VWS V14.00,2013-04-03 03:52:00,
2013-04-02 20:57:00,44.6,32.8,30.04,South,189,0.0,0.0,63,0.00,,---,0.00,VWS V14.00,2013-04-03 03:57:00,
2013-04-02 21:00:00,44.6,33.2,30.04,South,189,0.0,0.0,64,0.00,,---,0.00,VWS V14.00,2013-04-03 04:00:00,
2013-04-02 21:01:00,44.5,33.1,30.04,South,189,0.0,0.0,64,0.00,,---,0.00,VWS V14.00,2013-04-03 04:01:00,
2013-04-02 21:03:00,44.5,33.1,30.04,South,189,0.0,0.0,64,0.00,,---,0.00,VWS V14.00,2013-04-03 04:03:00,
2013-04-02 21:08:00,44.3,33.3,30.04,South,189,0.0,0.0,65,0.00,,---,0.00,VWS V14.00,2013-04-03 04:08:00,
2013-04-02 21:13:00,44.1,33.1,30.04,South,189,0.0,0.0,65,0.00,,---,0.00,VWS V14.00,2013-04-03 04:13:00,
2013-04-02 21:19:00,43.8,33.2,30.04,South,189,0.0,0.0,66,0.00,,---,0.00,VWS V14.00,2013-04-03 04:19:00,
2013-04-02 21:24:00,43.6,33.0,30.04,South,189,0.0,0.0,66,0.00,,---,0.00,VWS V14.00,2013-04-03 04:24:00,
2013-04-02 21:29:00,43.3,32.3,30.04,South,189,0.0,0.0,65,0.00,,---,0.00,VWS V14.00,2013-04-03 04:29:00,
2013-04-02 21:34:00,42.8,32.2,30.06,South,189,0.0,2.0,66,0.00,,---,0.00,VWS V14.00,2013-04-03 04:34:00,
2013-04-02 21:39:00,42.1,32.3,30.06,South,189,0.0,2.0,68,0.00,,---,0.00,VWS V14.00,2013-04-03 04:39:00,
2013-04-02 21:44:00,41.5,32.5,30.06,South,189,0.0,0.0,70,0.00,,---,0.00,VWS V14.00,2013-04-03 04:44:00,
2013-04-02 21:50:00,41.1,32.1,30.06,South,189,0.0,0.0,70,0.00,,---,0.00,VWS V14.00,2013-04-03 04:50:00,
2013-04-02 21:55:00,40.9,31.9,30.06,South,189,0.0,0.0,70,0.00,,---,0.00,VWS V14.00,2013-04-03 04:55:00,
2013-04-02 22:00:00,40.6,31.6,30.07,South,189,0.0,0.0,70,0.00,,---,0.00,VWS V14.00,2013-04-03 05:00:00,
2013-04-02 22:05:00,40.3,31.7,30.07,South,189,0.0,0.0,71,0.00,,---,0.00,VWS V14.00,2013-04-03 05:05:00,
2013-04-02 22:11:00,40.3,32.0,30.07,South,189,0.0,0.0,72,0.00,,---,0.00,VWS V14.00,2013-04-03 05:11:00,
2013-04-02 22:16:00,40.3,32.0,30.06,South,189,0.0,0.0,72,0.00,,---,0.00,VWS V14.00,2013-04-03 05:16:00,
2013-04-02 22:21:00,40.3,32.0,30.06,South,189,0.0,0.0,72,0.00,,---,0.00,VWS V14.00,2013-04-03 05:21:00,
2013-04-02 22:26:00,40.3,32.0,30.06,South,189,0.0,0.0,72,0.00,,---,0.00,VWS V14.00,2013-04-03 05:26:00,
2013-04-02 22:31:00,40.2,31.9,30.05,South,189,0.0,0.0,72,0.00,,---,0.00,VWS V14.00,2013-04-03 05:31:00,
2013-04-02 22:36:00,40.2,31.9,30.05,South,189,0.0,0.0,72,0.00,,---,0.00,VWS V14.00,2013-04-03 05:36:00,
2013-04-02 22:42:00,40.6,32.3,30.05,South,189,1.0,2.0,72,0.00,,---,0.00,VWS V14.00,2013-04-03 05:42:00,
2013-04-02 22:47:00,40.3,32.0,30.04,South,189,0.0,2.0,72,0.00,,---,0.00,VWS V14.00,2013-04-03 05:47:00,
2013-04-02 22:52:00,39.8,31.2,30.04,South,189,0.0,0.0,71,0.00,,---,0.00,VWS V14.00,2013-04-03 05:52:00,
2013-04-02 22:57:00,39.3,31.4,30.04,South,189,0.0,0.0,73,0.00,,---,0.00,VWS V14.00,2013-04-03 05:57:00,
2013-04-02 23:02:00,39.1,31.2,30.05,South,189,0.0,0.0,73,0.00,,---,0.00,VWS V14.00,2013-04-03 06:02:00,
2013-04-02 23:07:00,38.9,31.0,30.05,South,189,0.0,0.0,73,0.00,,---,0.00,VWS V14.00,2013-04-03 06:07:00,
2013-04-02 23:12:00,38.8,30.9,30.05,South,189,0.0,0.0,73,0.00,,---,0.00,VWS V14.00,2013-04-03 06:12:00,
2013-04-02 23:18:00,38.6,30.7,30.04,South,189,0.0,0.0,73,0.00,,---,0.00,VWS V14.00,2013-04-03 06:18:00,
2013-04-02 23:23:00,38.6,31.0,30.04,South,189,0.0,0.0,74,0.00,,---,0.00,VWS V14.00,2013-04-03 06:23:00,
2013-04-02 23:28:00,38.5,31.0,30.04,South,189,0.0,0.0,74,0.00,,---,0.00,VWS V14.00,2013-04-03 06:28:00,
2013-04-02 23:33:00,38.0,30.5,30.04,South,189,0.0,0.0,74,0.00,,---,0.00,VWS V14.00,2013-04-03 06:33:00,
2013-04-02 23:39:00,37.9,30.4,30.04,South,189,0.0,0.0,74,0.00,,---,0.00,VWS V14.00,2013-04-03 06:39:00,
2013-04-02 23:44:00,37.8,30.9,30.04,South,189,0.0,0.0,76,0.00,,---,0.00,VWS V14.00,2013-04-03 06:44:00,
2013-04-02 23:49:00,37.6,30.4,30.04,South,189,0.0,0.0,75,0.00,,---,0.00,VWS V14.00,2013-04-03 06:49:00,
2013-04-02 23:54:00,37.3,30.4,30.04,South,189,0.0,0.0,76,0.00,,---,0.00,VWS V14.00,2013-04-03 06:54:00,
2013-04-02 23:59:00,37.3,31.1,30.04,South,189,0.0,0.0,78,0.00,,---,0.00,VWS V14.00,2013-04-03 06:59:00,